Date String (YYYY-MM-DD hh:mm:ss) UTC,Instrument flags,Ambient pressure (hPa),Sample flow (lpm),Bypass flow (lpm),Sample temperature (°C),Ambient temperature (°C),ASC tube jacket temperature (°C),LED temperature (°C),Box temperature (°C),Sample RH (%),Span deviation,Mass concentration (μg/m³),Mass concentration (μg/m³),Mass concentration (μg/m³)
DateTimeUTC,F1_M11,P_M11,Q1_M11,Q2_M11,T1_M11,T2_M11,T3_M11,T4_M11,T5_M11,U1_M11,ZSPAN_M11,X0_M11,X2_M11,X1_M11
2022-02-14 01:00:00,,0828.4,5.01,0.00,24.5,23.5,00.0,33.5,26.0,06.0,0000.0,0001.66,0000.80,0000.57
2022-02-14 01:01:00,,0828.4,4.99,0.00,24.5,23.5,00.0,33.5,26.1,05.8,0000.0,0001.63,0000.77,0000.56
2022-02-14 01:02:00,,0828.4,5.01,0.00,24.5,23.5,00.0,33.5,26.1,05.7,0000.0,0001.46,0000.76,0000.56
2022-02-14 01:03:00,,0828.4,4.99,0.00,24.4,23.5,00.0,33.5,26.0,06.1,0000.0,0001.30,0000.75,0000.54
2022-02-14 01:04:00,,0828.2,5.01,0.00,24.4,23.5,00.0,33.5,26.1,06.4,0000.0,0001.29,0000.75,0000.54
2022-02-14 01:05:00,,0828.4,5.00,0.00,24.4,23.5,00.0,33.5,26.2,05.9,0000.0,0001.17,0000.71,0000.53
2022-02-14 01:06:00,,0828.4,5.01,0.00,24.4,23.5,00.0,33.5,26.2,05.7,0000.0,0001.01,0000.69,0000.53
2022-02-14 01:07:00,,0828.5,5.00,0.00,24.4,23.5,00.0,33.5,26.1,05.7,0000.0,0001.04,0000.69,0000.52
2022-02-14 01:08:00,,0828.4,4.98,0.00,24.4,23.5,00.0,33.5,26.0,05.9,0000.0,0001.00,0000.66,0000.52
2022-02-14 01:09:00,,0828.3,5.02,0.00,24.4,23.5,00.0,33.5,26.1,05.9,0000.0,0000.97,0000.65,0000.51
2022-02-14 01:10:00,,0828.4,5.00,0.00,24.4,23.5,00.0,33.4,26.1,06.3,0000.0,0000.96,0000.64,0000.50
2022-02-14 01:11:00,,0828.5,5.01,0.00,24.3,23.4,00.0,33.4,26.0,06.4,0000.0,0000.96,0000.63,0000.49
2022-02-14 01:12:00,,0828.4,5.01,0.00,24.3,23.3,00.0,33.4,25.9,06.5,0000.0,0000.99,0000.64,0000.49
2022-02-14 01:13:00,,0828.4,4.99,0.00,24.3,23.3,00.0,33.4,26.0,06.3,0000.0,0001.07,0000.67,0000.49
2022-02-14 01:14:00,,0828.4,4.99,0.00,24.3,23.3,00.0,33.4,26.0,06.1,0000.0,0001.37,0000.67,0000.49
2022-02-14 01:15:00,,0828.4,5.00,0.00,24.3,23.3,00.0,33.4,26.0,06.1,0000.0,0001.36,0000.65,0000.49
2022-02-14 01:16:00,,0828.4,5.01,0.00,24.2,23.3,00.0,33.4,25.9,06.4,0000.0,0001.34,0000.64,0000.48
2022-02-14 01:17:00,,0828.4,4.99,0.00,24.2,23.3,00.0,33.3,25.7,05.9,0000.0,0001.33,0000.64,0000.49
2022-02-14 01:18:00,,0828.7,4.98,0.00,24.2,23.2,00.0,33.3,25.6,05.9,0000.0,0001.28,0000.65,0000.49
2022-02-14 01:19:00,,0828.4,5.03,0.00,24.2,23.1,00.0,33.3,25.7,06.2,0000.0,0001.32,0000.66,0000.50
2022-02-14 01:20:00,,0828.6,5.00,0.00,24.2,23.2,00.0,33.3,25.8,05.5,0000.0,0001.29,0000.65,0000.50
2022-02-14 01:21:00,,0829.1,4.99,0.00,24.2,23.2,00.0,33.3,25.7,05.9,0000.0,0001.29,0000.65,0000.51
2022-02-14 01:22:00,,0828.7,5.01,0.00,24.2,23.1,00.0,33.3,25.6,05.9,0000.0,0001.37,0000.69,0000.51
2022-02-14 01:23:00,,0828.8,5.00,0.00,24.1,23.1,00.0,33.3,25.6,05.9,0000.0,0001.47,0000.73,0000.52
2022-02-14 01:24:00,,0828.6,5.01,0.00,24.1,23.1,00.0,33.2,25.7,06.1,0000.0,0001.44,0000.72,0000.52
2022-02-14 01:25:00,,0828.8,5.00,0.00,24.1,23.1,00.0,33.2,25.7,06.5,0000.0,0001.29,0000.73,0000.52
2022-02-14 01:26:00,,0828.7,5.00,0.00,24.1,23.1,00.0,33.2,25.7,06.8,0000.0,0001.33,0000.75,0000.52
2022-02-14 01:27:00,,0828.7,5.00,0.00,24.1,23.1,00.0,33.2,25.7,06.2,0000.0,0001.36,0000.77,0000.52
2022-02-14 01:28:00,,0828.7,4.99,0.00,24.2,23.2,00.0,33.2,25.7,05.7,0000.0,0001.34,0000.76,0000.52
2022-02-14 01:29:00,,0828.7,5.02,0.00,24.2,23.2,00.0,33.2,25.9,05.6,0000.0,0001.33,0000.77,0000.54
2022-02-14 01:30:00,,0828.7,4.99,0.00,24.2,23.2,00.0,33.2,25.8,05.4,0000.0,0001.29,0000.77,0000.55
2022-02-14 01:31:00,,0829.0,5.02,0.00,24.2,23.2,00.0,33.2,25.8,05.2,0000.0,0001.40,0000.80,0000.57
2022-02-14 01:32:00,,0828.8,4.98,0.00,24.2,23.2,00.0,33.2,25.9,05.2,0000.0,0001.51,0000.83,0000.59
2022-02-14 01:33:00,,0829.2,5.01,0.00,24.2,23.2,00.0,33.2,25.9,05.3,0000.0,0001.45,0000.81,0000.60
2022-02-14 01:34:00,,0829.3,5.00,0.00,24.2,23.3,00.0,33.2,25.9,05.4,0000.0,0001.34,0000.78,0000.60
2022-02-14 01:35:00,,0829.2,5.00,0.00,24.2,23.3,00.0,33.2,25.9,05.5,0000.0,0001.28,0000.77,0000.61
2022-02-14 01:36:00,,0828.8,4.99,0.00,24.2,23.3,00.0,33.2,25.9,05.4,0000.0,0001.15,0000.76,0000.62
2022-02-14 01:37:00,,0828.8,5.01,0.00,24.2,23.3,00.0,33.2,25.9,05.4,0000.0,0001.18,0000.78,0000.63
2022-02-14 01:38:00,,0829.0,4.99,0.00,24.2,23.3,00.0,33.2,25.9,05.3,0000.0,0001.18,0000.78,0000.64
2022-02-14 01:39:00,,0828.9,5.00,0.00,24.2,23.3,00.0,33.2,25.9,05.4,0000.0,0001.22,0000.79,0000.64
2022-02-14 01:40:00,,0828.9,5.00,0.00,24.2,23.3,00.0,33.2,25.9,05.3,0000.0,0001.21,0000.78,0000.63
2022-02-14 01:41:00,,0828.8,4.99,0.00,24.2,23.3,00.0,33.2,26.0,05.3,0000.0,0001.25,0000.80,0000.63
2022-02-14 01:42:00,,0828.8,5.01,0.00,24.2,23.3,00.0,33.2,26.0,05.4,0000.0,0001.24,0000.82,0000.62
2022-02-14 01:43:00,,0829.3,5.00,0.00,24.2,23.4,00.0,33.2,26.0,05.5,0000.0,0001.10,0000.77,0000.61
2022-02-14 01:44:00,,0829.0,5.01,0.00,24.2,23.4,00.0,33.2,26.0,05.4,0000.0,0001.13,0000.79,0000.60
2022-02-14 01:45:00,,0828.9,5.00,0.00,24.2,23.4,00.0,33.2,26.0,05.5,0000.0,0001.19,0000.81,0000.60
2022-02-14 01:46:00,,0829.0,5.01,0.00,24.2,23.4,00.0,33.2,26.0,05.5,0000.0,0001.20,0000.81,0000.59
2022-02-14 01:47:00,,0828.9,5.00,0.00,24.2,23.3,00.0,33.2,25.9,05.3,0000.0,0001.23,0000.83,0000.59
2022-02-14 01:48:00,,0828.9,4.99,0.00,24.2,23.3,00.0,33.2,25.9,05.7,0000.0,0001.19,0000.82,0000.58
2022-02-14 01:49:00,,0829.0,5.02,0.00,24.2,23.3,00.0,33.2,26.0,05.4,0000.0,0001.17,0000.81,0000.58
2022-02-14 01:50:00,,0828.9,4.99,0.00,24.2,23.3,00.0,33.2,26.0,05.3,0000.0,0001.57,0000.82,0000.58
2022-02-14 01:51:00,,0829.0,5.00,0.00,24.2,23.3,00.0,33.2,26.0,05.3,0000.0,0001.95,0000.85,0000.58
2022-02-14 01:52:00,,0828.9,5.00,0.00,24.2,23.3,00.0,33.2,25.9,05.3,0000.0,0001.98,0000.85,0000.57
2022-02-14 01:53:00,,0829.0,4.99,0.00,24.2,23.4,00.0,33.2,26.0,05.3,0000.0,0001.96,0000.83,0000.57
2022-02-14 01:54:00,,0828.9,4.99,0.00,24.2,23.4,00.0,33.2,26.0,05.3,0000.0,0002.03,0000.85,0000.57
2022-02-14 01:55:00,,0829.0,5.01,0.00,24.2,23.4,00.0,33.2,26.0,05.4,0000.0,0002.02,0000.83,0000.56
2022-02-14 01:56:00,,0828.9,4.99,0.00,24.2,23.4,00.0,33.2,26.0,05.6,0000.0,0002.04,0000.83,0000.56
2022-02-14 01:57:00,,0829.0,5.02,0.00,24.2,23.4,00.0,33.2,26.0,05.7,0000.0,0002.02,0000.82,0000.57
2022-02-14 01:58:00,,0828.9,4.99,0.00,24.2,23.4,00.0,33.2,26.0,05.4,0000.0,0002.04,0000.82,0000.56
2022-02-14 01:59:00,,0829.0,5.01,0.00,24.2,23.4,00.0,33.2,26.0,05.2,0000.0,0002.12,0000.83,0000.57
